This demonstration page uses our WeatherBlox Daily Observations layout. Learn more.

Left ArrowRight Arrow

41.86663, -103.66717

Hourly Observations for January 14, 2015

Temp ( °F °C ) Dew Point ( °F °C ) Humidity (%) Winds ( mph kmh ) Pressure ( in mb ) Visibility ( mi km ) Precip ( " mm )
12:53 am 00:53 Clear 12 -11.1 9 -12.8 87 87 NNW 10 17 30.44 1031 10 16 0.00 0.00
1:53 am 01:53 Clear 13 -10.6 9 -12.8 84 84 NW 9 15 30.43 1031 10 16 0.00 0.00
2:53 am 02:53 Clear 11 -11.7 9 -12.8 92 92 NNW 9 15 30.43 1030 10 16 0.00 0.00
3:53 am 03:53 Clear 8 -13.3 6 -14.4 92 92 NNW 9 15 30.41 1030 10 16 0.00 0.00
4:53 am 04:53 Clear 7 -13.9 4 -15.6 87 87 WNW 6 9 30.42 1030 9 14 0.00 0.00
5:53 am 05:53 Clear 3 -16.1 0 -17.8 87 87 NW 7 11 30.45 1031 9 14 0.00 0.00
6:53 am 06:53 Clear with Mist and Fog 5 -15 4 -15.6 95 95 WNW 6 9 30.42 1030 6 10 0.00 0.00
7:53 am 07:53 Sunny with Mist and Fog 4 -15.6 0 -17.8 83 83 WNW 3 6 30.41 1030 6 10 0.00 0.00
8:53 am 08:53 Sunny with Light Snow 5 -15 2 -16.7 87 87 NW 6 9 30.42 1030 9 14 0.00 0.03
9:53 am 09:53 Sunny 12 -11.1 10 -12.2 92 92 Calm 30.42 1030 10 16 0.00 0.03
10:53 am 10:53 Sunny 15 -9.4 11 -11.7 84 84 NNW 3 6 30.40 1029 10 16 0.00 0.00
11:53 am 11:53 Sunny 20 -6.7 13 -10.6 74 74 N 3 6 30.35 1028 10 16 0.00 0.00
12:53 pm 12:53 Sunny 24 -4.4 15 -9.4 68 68 Calm 30.29 1026 10 16 0.00 0.00
1:53 pm 13:53 Sunny 26 -3.3 18 -7.8 71 71 NW 3 6 30.27 1025 10 16 0.00 0.00
2:53 pm 14:53 Sunny 25 -3.9 17 -8.3 72 72 Calm 30.28 1026 10 16 0.00 0.00
3:53 pm 15:53 Sunny 23 -5 16 -8.9 74 74 Calm 30.29 1026 10 16 0.00 0.00
4:53 pm 16:53 Clear 20 -6.7 14 -10 78 78 NW 6 9 30.31 1026 10 16 0.00 0.00
5:53 pm 17:53 Clear 13 -10.6 10 -12.2 88 88 NNW 6 9 30.35 1028 10 16 0.00 0.00
6:53 pm 18:53 Clear 18 -7.8 14 -10 84 84 NNW 6 9 30.32 1027 10 16 0.00 0.00
7:53 pm 19:53 Clear 16 -8.9 12 -11.1 84 84 NW 12 19 30.35 1028 10 16 0.00 0.00
8:53 pm 20:53 Clear 17 -8.3 13 -10.6 84 84 WNW 7 11 30.34 1028 10 16 0.00 0.00
9:53 pm 21:53 Clear 15 -9.4 11 -11.7 84 84 NW 12 19 30.35 1028 10 16 0.00 0.00
10:53 pm 22:53 Clear 19 -7.2 13 -10.6 77 77 NW 13 20 30.35 1028 10 16 0.00 0.00
11:53 pm 23:53 Clear 16 -8.9 11 -11.7 80 80 WNW 8 13 30.36 1028 10 16 0.00 0.00

Powered by AerisWeather